Time,TemperatureF,DewpointF,PressureIn,WindDirection,WindDirectionDegrees,WindSpeedMPH,WindSpeedGustMPH,Humidity,HourlyPrecipIn,Conditions,Clouds,dailyrainin,SoftwareType,DateUTC
2013-06-07 00:10:00,73.1,39.0,29.69,NNW,343,4.0,5.0,29,0.00,,,0.00,weatherlink.com 1.10,2013-06-07 06:10:00,
2013-06-07 00:25:00,72.6,39.0,29.69,NW,320,5.0,6.0,29,0.00,,,0.00,weatherlink.com 1.10,2013-06-07 06:25:00,
2013-06-07 00:40:00,72.0,41.0,29.70,WNW,297,5.0,8.0,33,0.00,,,0.00,weatherlink.com 1.10,2013-06-07 06:40:00,
2013-06-07 00:55:00,70.8,45.0,29.71,North,355,5.0,12.0,39,0.00,,,0.00,weatherlink.com 1.10,2013-06-07 06:55:00,
2013-06-07 01:10:00,68.9,48.0,29.71,North,5,8.0,13.0,48,0.00,,,0.00,weatherlink.com 1.10,2013-06-07 07:10:00,
2013-06-07 01:25:00,68.9,48.0,29.70,NNE,15,8.0,12.0,47,0.00,,,0.00,weatherlink.com 1.10,2013-06-07 07:25:00,
2013-06-07 01:40:00,68.5,48.0,29.71,NNW,340,10.0,12.0,48,0.00,,,0.00,weatherlink.com 1.10,2013-06-07 07:40:00,
2013-06-07 01:55:00,67.7,49.0,29.71,North,355,5.0,11.0,52,0.00,,,0.00,weatherlink.com 1.10,2013-06-07 07:55:00,
2013-06-07 02:10:00,66.9,50.0,29.71,NNE,22,7.0,13.0,54,0.00,,,0.00,weatherlink.com 1.10,2013-06-07 08:10:00,
2013-06-07 02:25:00,66.5,50.0,29.71,North,5,5.0,11.0,55,0.00,,,0.00,weatherlink.com 1.10,2013-06-07 08:25:00,
2013-06-07 02:40:00,66.1,49.0,29.71,North,5,3.0,9.0,55,0.00,,,0.00,weatherlink.com 1.10,2013-06-07 08:40:00,
2013-06-07 02:55:00,65.6,49.0,29.71,North,360,1.0,5.0,56,0.00,,,0.00,weatherlink.com 1.10,2013-06-07 08:55:00,
2013-06-07 03:10:00,65.3,49.0,29.71,North,360,1.0,4.0,55,0.00,,,0.00,weatherlink.com 1.10,2013-06-07 09:10:00,
2013-06-07 03:26:00,64.7,48.0,29.71,North,360,2.0,4.0,56,0.00,,,0.00,weatherlink.com 1.10,2013-06-07 09:26:00,
2013-06-07 03:41:00,63.0,48.0,29.72,North,5,2.0,6.0,58,0.00,,,0.00,weatherlink.com 1.10,2013-06-07 09:41:00,
2013-06-07 03:56:00,62.3,47.0,29.72,North,5,5.0,5.0,58,0.00,,,0.00,weatherlink.com 1.10,2013-06-07 09:56:00,
2013-06-07 04:11:00,62.7,47.0,29.72,North,5,1.0,5.0,58,0.00,,,0.00,weatherlink.com 1.10,2013-06-07 10:11:00,
2013-06-07 04:26:00,63.1,48.0,29.72,North,5,2.0,3.0,58,0.00,,,0.00,weatherlink.com 1.10,2013-06-07 10:26:00,
2013-06-07 04:41:00,63.1,48.0,29.73,North,5,1.0,3.0,58,0.00,,,0.00,weatherlink.com 1.10,2013-06-07 10:41:00,
2013-06-07 04:56:00,63.0,49.0,29.72,North,5,3.0,4.0,61,0.00,,,0.00,weatherlink.com 1.10,2013-06-07 10:56:00,
2013-06-07 05:11:00,62.6,50.0,29.72,North,355,5.0,6.0,63,0.00,,,0.00,weatherlink.com 1.10,2013-06-07 11:11:00,
2013-06-07 05:26:00,62.1,50.0,29.73,North,5,4.0,6.0,65,0.00,,,0.00,weatherlink.com 1.10,2013-06-07 11:26:00,
2013-06-07 05:41:00,62.1,50.0,29.73,NNE,27,2.0,6.0,65,0.00,,,0.00,weatherlink.com 1.10,2013-06-07 11:41:00,
2013-06-07 05:56:00,62.4,51.0,29.73,NNE,30,11.0,11.0,66,0.00,,,0.00,weatherlink.com 1.10,2013-06-07 11:56:00,
2013-06-07 06:11:00,62.5,51.0,29.73,NNE,30,8.0,14.0,66,0.00,,,0.00,weatherlink.com 1.10,2013-06-07 12:11:00,
2013-06-07 06:26:00,62.6,51.0,29.74,NE,35,14.0,17.0,66,0.00,,,0.00,weatherlink.com 1.10,2013-06-07 12:26:00,
2013-06-07 06:41:00,62.4,51.0,29.74,NE,39,15.0,17.0,67,0.00,,,0.00,weatherlink.com 1.10,2013-06-07 12:41:00,
2013-06-07 06:56:00,62.9,51.0,29.75,NNE,32,10.0,19.0,66,0.00,,,0.00,weatherlink.com 1.10,2013-06-07 12:56:00,
2013-06-07 07:11:00,63.4,51.0,29.75,NE,38,10.0,18.0,65,0.00,,,0.00,weatherlink.com 1.10,2013-06-07 13:11:00,
2013-06-07 07:26:00,64.0,51.0,29.75,NNE,33,15.0,20.0,64,0.00,,,0.00,weatherlink.com 1.10,2013-06-07 13:26:00,
2013-06-07 07:41:00,64.7,51.0,29.75,NE,49,13.0,18.0,62,0.00,,,0.00,weatherlink.com 1.10,2013-06-07 13:41:00,
2013-06-07 07:55:00,65.0,52.0,29.75,ENE,68,10.0,19.0,62,0.00,,,0.00,weatherlink.com 1.10,2013-06-07 13:55:00,
2013-06-07 08:10:00,65.7,52.0,29.76,NE,40,13.0,18.0,61,0.00,,,0.00,weatherlink.com 1.10,2013-06-07 14:10:00,
2013-06-07 08:25:00,66.1,52.0,29.76,NNE,31,7.0,15.0,60,0.00,,,0.00,weatherlink.com 1.10,2013-06-07 14:25:00,
2013-06-07 08:40:00,66.8,51.0,29.76,NE,42,10.0,15.0,58,0.00,,,0.00,weatherlink.com 1.10,2013-06-07 14:40:00,
2013-06-07 08:55:00,67.1,52.0,29.76,NNE,28,9.0,16.0,58,0.00,,,0.00,weatherlink.com 1.10,2013-06-07 14:55:00,
2013-06-07 09:10:00,67.7,52.0,29.75,NE,55,9.0,18.0,57,0.00,,,0.00,weatherlink.com 1.10,2013-06-07 15:10:00,
2013-06-07 09:25:00,68.1,52.0,29.75,ENE,67,13.0,13.0,56,0.00,,,0.00,weatherlink.com 1.10,2013-06-07 15:25:00,
2013-06-07 09:40:00,68.8,52.0,29.74,NNE,29,5.0,14.0,55,0.00,,,0.00,weatherlink.com 1.10,2013-06-07 15:40:00,
2013-06-07 09:55:00,69.7,52.0,29.73,NE,34,7.0,12.0,53,0.00,,,0.00,weatherlink.com 1.10,2013-06-07 15:55:00,
2013-06-07 10:10:00,70.9,52.0,29.73,NNE,26,6.0,11.0,51,0.00,,,0.00,weatherlink.com 1.10,2013-06-07 16:10:00,
2013-06-07 10:25:00,71.8,50.0,29.72,North,5,4.0,6.0,46,0.00,,,0.00,weatherlink.com 1.10,2013-06-07 16:25:00,
2013-06-07 10:40:00,73.7,50.0,29.72,NNE,13,4.0,6.0,43,0.00,,,0.00,weatherlink.com 1.10,2013-06-07 16:40:00,
2013-06-07 10:55:00,74.0,49.0,29.72,East,99,1.0,7.0,42,0.00,,,0.00,weatherlink.com 1.10,2013-06-07 16:55:00,
2013-06-07 11:10:00,76.2,49.0,29.71,SW,222,3.0,5.0,39,0.00,,,0.00,weatherlink.com 1.10,2013-06-07 17:10:00,
2013-06-07 11:25:00,77.9,50.0,29.70,South,191,2.0,10.0,37,0.00,,,0.00,weatherlink.com 1.10,2013-06-07 17:25:00,
2013-06-07 11:41:00,77.0,49.0,29.70,South,180,6.0,15.0,37,0.00,,,0.00,weatherlink.com 1.10,2013-06-07 17:41:00,
2013-06-07 12:11:00,79.8,46.0,29.68,SSW,199,7.0,15.0,30,0.00,,,0.00,weatherlink.com 1.10,2013-06-07 18:11:00,
2013-06-07 12:26:00,79.8,46.0,29.68,SSW,195,7.0,18.0,30,0.00,,,0.00,weatherlink.com 1.10,2013-06-07 18:26:00,
2013-06-07 12:41:00,80.9,46.0,29.66,South,175,12.0,19.0,29,0.00,,,0.00,weatherlink.com 1.10,2013-06-07 18:41:00,
2013-06-07 12:56:00,80.7,47.0,29.66,South,178,11.0,17.0,30,0.00,,,0.00,weatherlink.com 1.10,2013-06-07 18:56:00,
2013-06-07 13:11:00,82.2,45.0,29.65,SSE,159,8.0,16.0,27,0.00,,,0.00,weatherlink.com 1.10,2013-06-07 19:11:00,
2013-06-07 13:26:00,82.3,44.0,29.64,South,171,5.0,18.0,26,0.00,,,0.00,weatherlink.com 1.10,2013-06-07 19:26:00,
2013-06-07 13:41:00,82.7,44.0,29.62,South,183,3.0,15.0,26,0.00,,,0.00,weatherlink.com 1.10,2013-06-07 19:41:00,
2013-06-07 13:56:00,84.8,44.0,29.61,South,184,7.0,18.0,24,0.00,,,0.00,weatherlink.com 1.10,2013-06-07 19:56:00,
2013-06-07 14:41:00,86.4,40.0,29.57,SSW,205,10.0,15.0,19,0.00,,,0.00,weatherlink.com 1.10,2013-06-07 20:41:00,
2013-06-07 14:56:00,87.4,39.0,29.56,South,169,9.0,15.0,18,0.00,,,0.00,weatherlink.com 1.10,2013-06-07 20:56:00,
2013-06-07 15:11:00,87.1,39.0,29.55,SSE,159,7.0,17.0,18,0.00,,,0.00,weatherlink.com 1.10,2013-06-07 21:11:00,
2013-06-07 15:26:00,86.9,39.0,29.54,South,179,11.0,15.0,18,0.00,,,0.00,weatherlink.com 1.10,2013-06-07 21:26:00,
2013-06-07 15:41:00,88.6,38.0,29.53,SSW,201,8.0,17.0,17,0.00,,,0.00,weatherlink.com 1.10,2013-06-07 21:41:00,
2013-06-07 15:56:00,88.4,38.0,29.53,South,169,8.0,18.0,17,0.00,,,0.00,weatherlink.com 1.10,2013-06-07 21:56:00,
2013-06-07 16:11:00,87.7,38.0,29.52,SSE,153,9.0,17.0,17,0.00,,,0.00,weatherlink.com 1.10,2013-06-07 22:11:00,
2013-06-07 16:26:00,89.5,38.0,29.51,SSE,165,9.0,12.0,16,0.00,,,0.00,weatherlink.com 1.10,2013-06-07 22:26:00,
2013-06-07 16:57:00,90.4,35.0,29.49,South,169,7.0,18.0,14,0.00,,,0.00,weatherlink.com 1.10,2013-06-07 22:57:00,
2013-06-07 17:27:00,90.8,29.0,29.48,WNW,283,13.0,21.0,11,0.00,,,0.00,weatherlink.com 1.10,2013-06-07 23:27:00,
2013-06-07 17:42:00,89.3,36.0,29.51,NNE,31,23.0,34.0,15,0.00,,,0.00,weatherlink.com 1.10,2013-06-07 23:42:00,
2013-06-07 17:57:00,78.6,39.0,29.50,ENE,57,23.0,39.0,24,0.00,,,0.00,weatherlink.com 1.10,2013-06-07 23:57:00,
2013-06-07 18:27:00,79.0,39.0,29.52,ENE,63,23.0,31.0,24,0.00,,,0.00,weatherlink.com 1.10,2013-06-08 00:27:00,
2013-06-07 19:12:00,81.9,38.0,29.53,NE,34,11.0,19.0,21,0.00,,,0.00,weatherlink.com 1.10,2013-06-08 01:12:00,
2013-06-07 19:27:00,81.0,40.0,29.53,NE,48,13.0,19.0,23,0.00,,,0.00,weatherlink.com 1.10,2013-06-08 01:27:00,
2013-06-07 19:42:00,81.4,37.0,29.53,NE,49,10.0,15.0,20,0.00,,,0.00,weatherlink.com 1.10,2013-06-08 01:42:00,
2013-06-07 19:57:00,81.2,36.0,29.55,NNE,30,10.0,16.0,20,0.00,,,0.00,weatherlink.com 1.10,2013-06-08 01:57:00,
2013-06-07 20:27:00,78.9,38.0,29.55,North,11,9.0,16.0,23,0.00,,,0.00,weatherlink.com 1.10,2013-06-08 02:27:00,
2013-06-07 20:42:00,79.0,37.0,29.56,NNE,17,7.0,13.0,22,0.00,,,0.00,weatherlink.com 1.10,2013-06-08 02:42:00,
2013-06-07 20:57:00,78.2,37.0,29.56,NNE,12,8.0,12.0,23,0.00,,,0.00,weatherlink.com 1.10,2013-06-08 02:57:00,
2013-06-07 21:12:00,77.9,37.0,29.56,NNE,21,5.0,10.0,23,0.00,,,0.00,weatherlink.com 1.10,2013-06-08 03:12:00,
2013-06-07 21:27:00,77.7,37.0,29.58,North,351,5.0,9.0,23,0.00,,,0.00,weatherlink.com 1.10,2013-06-08 03:27:00,
2013-06-07 21:42:00,76.9,37.0,29.58,North,355,7.0,9.0,24,0.00,,,0.00,weatherlink.com 1.10,2013-06-08 03:42:00,
2013-06-07 21:57:00,77.0,37.0,29.59,North,5,5.0,10.0,24,0.00,,,0.00,weatherlink.com 1.10,2013-06-08 03:57:00,
2013-06-07 22:12:00,75.6,40.0,29.59,North,360,5.0,9.0,28,0.00,,,0.00,weatherlink.com 1.10,2013-06-08 04:12:00,
2013-06-07 22:27:00,74.6,42.0,29.59,NNE,26,0.0,9.0,31,0.00,,,0.00,weatherlink.com 1.10,2013-06-08 04:27:00,
2013-06-07 22:42:00,74.0,43.0,29.59,NNE,15,4.0,5.0,33,0.00,,,0.00,weatherlink.com 1.10,2013-06-08 04:42:00,
2013-06-07 22:57:00,73.1,45.0,29.59,North,360,9.0,10.0,36,0.00,,,0.00,weatherlink.com 1.10,2013-06-08 04:57:00,
2013-06-07 23:12:00,72.8,46.0,29.59,NNE,23,9.0,10.0,38,0.00,,,0.00,weatherlink.com 1.10,2013-06-08 05:12:00,
2013-06-07 23:27:00,72.2,46.0,29.59,NNE,30,7.0,13.0,39,0.00,,,0.00,weatherlink.com 1.10,2013-06-08 05:27:00,
2013-06-07 23:42:00,70.9,46.0,29.60,North,10,8.0,11.0,41,0.00,,,0.00,weatherlink.com 1.10,2013-06-08 05:42:00,
2013-06-07 23:57:00,70.3,46.0,29.60,NNE,19,7.0,12.0,42,0.00,,,0.00,weatherlink.com 1.10,2013-06-08 05:57:00,